Regional Weather Roundup
Issued by NWS

Home | Current Version | Previous Version | Text Only | Print | Product List | Glossary On
Versions: 1 2 3 4 5 6 7 8 9 10 11 12 13 14 15 16 17 18 19 20 21 22 23 24 25 26 27
000
ASUS45 KCYS 192210
RWRWY

WYOMING REGIONAL WEATHER ROUNDUP
NATIONAL WEATHER SERVICE CHEYENNE WY
400 PM MDT SAT AUG 19 2017

NOTE:  "FAIR" INDICATES FEW OR NO CLOUDS BELOW 12,000 FEET
WITH NO SIGNIFICANT WEATHER AND/OR OBSTRUCTIONS TO VISIBILITY.

WYZ001-192300-
YELLOWSTONE NATIONAL PARK

CITY           SKY/WX    TMP DP  RH WIND       PRES   REMARKS
LK YELLOWSTONE   N/A     69  25  19 W8        30.26F
W YELLOWSTONE  NOT AVBL

$$
WYZ002>013-054>058-071-098>099-192300-
NORTHERN WYOMING

CITY           SKY/WX    TMP DP  RH WIND       PRES   REMARKS
JACKSON        FAIR      80  28  15 W10G21    30.14F
CODY           FAIR      80  37  21 NE5       30.00F
GREYBULL       FAIR      89  27  10 VRB6      29.89F
WORLAND        FAIR      90  41  18 N12       29.88F
SHERIDAN       FAIR      84  34  16 N9        29.95F HAZE
BUFFALO        CLOUDY    83  28  13 N12       30.02S HAZE
GILLETTE       FAIR      88  27  11 CALM      29.94F
HULETT         FAIR      86  34  15 NE13      29.96S
NEWCASTLE      FAIR      90  30  12 CALM      29.93F

$$
WYZ014>020-022>026-101>103-192300-
CENTRAL WYOMING

CITY           SKY/WX    TMP DP  RH WIND       PRES   REMARKS
BIG PINEY      FAIR      82  18   9 NW15G28   30.19F
PINEDALE       FAIR      79  21  11 W12G23    30.19F
DUBOIS         FAIR      79  19  11 NW22G29   30.15S
LANDER           N/A    N/A N/A N/A MISG      30.02F
RIVERTON       FAIR      88  19   8 S9        29.99F
CASPER         FAIR      89  25  10 W8        30.00F
DOUGLAS        FAIR      89  30  12 NW13      29.99F

$$
WYZ021-027>030-104>119-192300-
SOUTHERN WYOMING

CITY           SKY/WX    TMP DP  RH WIND       PRES   REMARKS
EVANSTON       FAIR      81  27  14 W16G29    30.22F
KEMMERER         N/A    N/A N/A N/A W16G30    30.23F
FORT BRIDGER   FAIR      85  22   9 NW13G24   30.22F
ROCK SPRINGS   FAIR      84  16   8 W22G29    30.16F
RAWLINS        FAIR      84  16   8 W15G25    30.16F
SARATOGA       FAIR      82  23  11 NW12G29   30.20F
LARAMIE        FAIR      82  17   9 W18       30.18S
CHEYENNE       FAIR      88  21   8 NW16G23   30.08F
TORRINGTON     FAIR      94  21   7 CALM      29.91F
PINE BLUFFS    FAIR      90  28  11 W12G23    30.00F

$$




USA.gov is the U.S. government's official web portal to all federal, state and local government web resources and services.